Weather History for Eureka, NU

Change the Weather History Date:

Sunday, February 17, 2013

  Actual Average Record
Temperature  
Mean Temperature -36 °F -  
Max Temperature -30 °F -30 °F -9 °F (2011)
Min Temperature -41 °F -43 °F -58 °F (2009)
Degree Days  
Heating Degree Days 100    
Moisture  
Dew Point -43 °F    
Average Humidity 59    
Maximum Humidity 68    
Minimum Humidity 43    
Precipitation  
Precipitation 0.00 in 0.00 in - ()
Sea Level Pressure  
Sea Level Pressure 30.33 in    
Wind  
Wind Speed 4 mph ()    
Max Wind Speed 7 mph    
Max Gust Speed -    
Visibility 15.0 miles    
Events Snow    
Averages and records for this station are not official NWS values.
T = Trace of Precipitation, MM = Missing Value Source: Averaged Metar Reports

Daily Weather History Graph

Daily Weather History Graph

Search for Another Location

Airport:

Trip Planner

Search our weather history database for the weather conditions in past years. The results will help you decide how hot, cold, wet, or windy it might be!

Date:

Astronomy

Feb. 17, 2013 Rise Set
Actual Time 11:25 AM CST 12:30 PM CST
Civil Twilight 8:16 AM CST 3:42 PM CST
Nautical Twilight 5:49 AM CST 6:09 PM CST
Astronomical Twilight 3:22 AM CST 8:40 PM CST
Moon No Moon Rise No Moon Set
Length of Visible Light 7h 26m
Length of Day
1h 04m
Waxing Crescent, 49% of the Moon is Illuminated
Feb 17
Waxing Crescent
Feb 17
First Quarter
Feb 25
Full
Mar 4
Last Quarter
Mar 11
New

Hourly Weather History & Observations

Time (CST) Temp. Windchill Dew Point Humidity Pressure Visibility Wind Dir Wind Speed Gust Speed Precip Events Conditions
12:00 AM -32 °F - -40 °F 45% 30.30 in 15 mi SSE 3.5 mph - - Snow Snow
12:00 AM -32.8 °F -48.2 °F -40.0 °F 68% 30.30 in 15.0 mi SSE 4.6 mph - N/A   Clear
1:00 AM -32.8 °F -50.5 °F -41.8 °F 62% 30.30 in 15.0 mi SE 5.8 mph - N/A   Clear
2:00 AM -32.8 °F - -41.8 °F 62% 30.30 in 15.0 mi South 2.3 mph - N/A   Clear
4:00 AM -32.8 °F -48.2 °F -41.8 °F 62% 30.30 in 15.0 mi SE 4.6 mph - N/A   Clear
5:00 AM -31.0 °F -48.4 °F -38.2 °F 68% 30.30 in 15.0 mi SSE 5.8 mph - N/A   Clear
6:00 AM -32 °F - -41 °F 44% 30.30 in 15 mi SSE 4.6 mph - - Snow Snow
6:00 AM -31.0 °F -46.1 °F -40.0 °F 62% 30.30 in 15.0 mi ENE 4.6 mph - N/A   Clear
7:00 AM -34.6 °F - -43.6 °F 61% 30.31 in 15.0 mi Calm Calm - N/A   Partly Cloudy
8:00 AM -34.6 °F -52.6 °F -43.6 °F 61% 30.30 in 15.0 mi SE 5.8 mph - N/A   Partly Cloudy
9:00 AM -31.0 °F -46.1 °F -41.8 °F 56% 30.30 in 15.0 mi SSE 4.6 mph - N/A   Partly Cloudy
10:00 AM -32.8 °F -50.5 °F -41.8 °F 62% 30.30 in 15.0 mi SE 5.8 mph - N/A   Partly Cloudy
11:00 AM -32.8 °F - -41.8 °F 62% 30.30 in 15.0 mi SSE 2.3 mph - N/A   Scattered Clouds
12:00 PM -35 °F - -43 °F 45% 30.31 in 15 mi SE 6.9 mph - - Snow Snow
12:00 PM -34.6 °F -54.6 °F -43.6 °F 61% 30.31 in 15.0 mi SE 6.9 mph - N/A   Mostly Cloudy
1:00 PM -34.6 °F -52.6 °F -43.6 °F 61% 30.32 in 15.0 mi SE 5.8 mph - N/A   Mostly Cloudy
2:00 PM -34.6 °F -52.6 °F -43.6 °F 61% 30.33 in 15.0 mi SSE 5.8 mph - N/A   Scattered Clouds
3:00 PM -34.6 °F -50.3 °F -43.6 °F 61% 30.34 in 15.0 mi SE 4.6 mph - N/A   Scattered Clouds
4:00 PM -36.4 °F -56.8 °F -43.6 °F 67% 30.35 in 15.0 mi SE 6.9 mph - N/A   Partly Cloudy
5:00 PM -38.2 °F -56.9 °F -45.4 °F 67% 30.36 in 15.0 mi SSE 5.8 mph - N/A   Scattered Clouds
6:00 PM -35 °F - -44 °F 43% 30.38 in 15 mi SSE 4.6 mph - - Snow Snow
6:00 PM -34.6 °F -47.4 °F -43.6 °F 61% 30.38 in 15.0 mi SSE 3.5 mph - N/A   Scattered Clouds
7:00 PM -36.4 °F -49.4 °F -45.4 °F 61% 30.38 in 15.0 mi SE 3.5 mph - N/A   Partly Cloudy
8:00 PM -36.4 °F -54.8 °F -45.4 °F 61% 30.39 in 15.0 mi SSE 5.8 mph - N/A   Mostly Cloudy
9:00 PM -36.4 °F -49.4 °F -45.4 °F 61% 30.40 in 15.0 mi SSE 3.5 mph - N/A   Mostly Cloudy